K0SNA Weather Reports


Display with metric or nautical units.
time (UTC)temp
F
wind
direction
speed
MPH
gust
MPH
rain 1hr
in
rain 24hr
in
rain mn
in
humidity
%
barometer
mb
20260505101951 39 335 4.0 5.0 0.00 0.00 0.00 64 1008.6
20260505101444 39 202 1.0 3.0 0.00 0.00 0.00 64 1008.7
20260505100940 39 204 1.0 2.0 0.00 0.00 0.00 64 1008.6
20260505100438 39 219 1.0 2.0 0.00 0.00 0.00 64 1008.6
20260505095933 39 193 0.0 2.0 0.00 0.00 0.00 63 1008.7
20260505095431 39 293 3.0 3.0 0.00 0.00 0.00 63 1008.5
20260505094926 40 206 1.0 3.0 0.00 0.00 0.00 63 1008.6
20260505094424 40 313 3.0 3.0 0.00 0.00 0.00 62 1008.6
20260505093920 40 169 1.0 3.0 0.00 0.00 0.00 62 1008.4
20260505093417 40 322 3.0 5.0 0.00 0.00 0.00 61 1008.6
20260505092914 40 279 2.0 7.0 0.00 0.00 0.00 61 1008.2
20260505092412 40 324 3.0 7.0 0.00 0.00 0.00 61 1008.4
20260505091909 40 302 3.0 3.0 0.00 0.00 0.00 61 1008.2
20260505091407 40 1 4.0 6.0 0.00 0.00 0.00 61 1008.1
20260505090904 40 264 3.0 6.0 0.00 0.00 0.00 60 1008.3
20260505090403 41 288 3.0 5.0 0.00 0.00 0.00 60 1008.0
20260505085859 41 213 1.0 3.0 0.00 0.00 0.00 60 1008.1
20260505085357 41 343 4.0 5.0 0.00 0.00 0.00 59 1008.0
20260505084855 41 214 2.0 7.0 0.00 0.00 0.00 58 1008.0
20260505084353 41 295 3.0 6.0 0.00 0.00 0.00 58 1007.9
20260505083850 41 220 1.0 2.0 0.00 0.00 0.00 58 1007.7
20260505083348 41 260 4.0 5.0 0.00 0.00 0.00 57 1007.7
20260505082844 42 251 2.0 5.0 0.00 0.00 0.00 57 1007.6
20260505082340 42 223 2.0 3.0 0.00 0.00 0.00 56 1007.5
20260505081837 42 230 2.0 3.0 0.00 0.00 0.00 55 1007.4
20260505081333 42 303 3.0 5.0 0.00 0.00 0.00 55 1007.4
20260505080830 42 278 3.0 5.0 0.00 0.00 0.00 55 1007.5
20260505080326 42 279 3.0 3.0 0.00 0.00 0.00 55 1007.4
20260505075822 42 317 4.0 7.0 0.00 0.00 0.00 55 1007.3
20260505075319 42 287 3.0 5.0 0.00 0.00 0.00 55 1007.4
20260505074816 42 253 3.0 5.0 0.00 0.00 0.00 56 1007.3
20260505074313 42 348 3.0 6.0 0.00 0.00 0.00 56 1007.2
20260505073811 42 248 2.0 5.0 0.00 0.00 0.00 56 1007.4
20260505073309 42 337 3.0 3.0 0.00 0.00 0.00 56 1007.1
20260505072805 42 318 4.0 5.0 0.00 0.00 0.00 56 1007.3
20260505072301 42 327 4.0 6.0 0.00 0.00 0.00 56 1007.4
20260505071757 42 284 1.0 3.0 0.00 0.00 0.00 56 1007.5
20260505071254 42 269 3.0 6.0 0.00 0.00 0.00 56 1007.4
20260505070752 42 229 2.0 5.0 0.00 0.00 0.00 56 1007.4
20260505070248 43 229 2.0 5.0 0.00 0.00 0.00 55 1007.3
20260505065743 43 317 3.0 6.0 0.00 0.00 0.00 55 1007.3
20260505065240 43 295 3.0 5.0 0.00 0.00 0.00 54 1007.3
20260505064737 43 213 1.0 5.0 0.00 0.00 0.00 54 1007.4
20260505064235 43 274 3.0 5.0 0.00 0.00 0.00 54 1007.3
20260505063732 43 306 4.0 9.0 0.00 0.00 0.00 53 1007.5
20260505063229 43 202 1.0 3.0 0.00 0.00 0.00 54 1007.3
20260505062725 44 260 2.0 3.0 0.00 0.00 0.00 53 1007.3
20260505062223 44 261 2.0 8.0 0.00 0.00 0.00 52 1007.5
20260505061719 43 62 3.0 6.0 0.00 0.00 0.00 54 1007.5
20260505061218 43 281 3.0 5.0 0.00 0.00 0.00 54 1007.5
20260505060715 43 220 2.0 3.0 0.00 0.00 0.00 55 1007.7
20260505060211 43 216 1.0 2.0 0.00 0.00 0.00 58 1007.5
20260505055707 42 214 1.0 2.0 0.00 0.00 0.00 59 1007.2
20260505055203 42 216 0.0 1.0 0.00 0.00 0.00 61 1007.4
20260505054701 42 203 0.0 1.0 0.00 0.00 0.00 61 1007.4
20260505054159 42 218 1.0 2.0 0.00 0.00 0.00 60 1007.3
20260505053656 42 206 1.0 1.0 0.00 0.00 0.00 61 1007.3
20260505053153 42 240 2.0 2.0 0.00 0.00 0.00 60 1007.4
20260505052650 42 216 1.0 2.0 0.00 0.00 0.00 60 1007.1
20260505052147 42 221 2.0 2.0 0.00 0.00 0.00 59 1007.0
20260505051643 42 207 1.0 2.0 0.00 0.00 0.00 59 1007.1
20260505051142 42 206 1.0 1.0 0.00 0.00 0.00 59 1007.0
20260505050639 42 201 1.0 2.0 0.00 0.00 0.00 59 1007.0
20260505050138 43 209 1.0 3.0 0.00 0.00 0.00 58 1006.9
20260505041607 44 239 3.0 5.0 0.00 0.00 0.00 54 1006.8
20260505041105 44 230 2.0 2.0 0.00 0.00 0.00 54 1007.1
20260505040602 44 218 3.0 3.0 0.00 0.00 0.00 53 1006.8
20260505040059 44 203 1.0 1.0 0.00 0.00 0.00 53 1007.1
20260505035555 44 208 1.0 3.0 0.00 0.00 0.00 52 1006.9
20260505035051 44 221 1.0 2.0 0.00 0.00 0.00 52 1007.0
20260505034548 44 214 1.0 3.0 0.00 0.00 0.00 51 1006.8
20260505034045 44 215 1.0 2.0 0.00 0.00 0.00 51 1006.7
20260505033542 45 226 2.0 2.0 0.00 0.00 0.00 51 1006.7
20260505033040 45 214 2.0 2.0 0.00 0.00 0.00 51 1006.8
20260505032538 45 202 0.0 1.0 0.00 0.00 0.00 50 1006.6
20260505032034 45 212 1.0 2.0 0.00 0.00 0.00 50 1006.7
20260505031531 45 234 2.0 3.0 0.00 0.00 0.00 49 1006.8
20260505031027 45 215 1.0 5.0 0.00 0.00 0.00 49 1006.8
20260505030525 45 203 2.0 2.0 0.00 0.00 0.00 49 1006.9
20260505030021 45 220 2.0 2.0 0.00 0.00 0.00 49 1006.8
20260505025517 45 214 2.0 3.0 0.00 0.00 0.00 49 1006.6
20260505025016 46 218 1.0 1.0 0.00 0.00 0.00 49 1006.6
20260505024512 46 208 1.0 1.0 0.00 0.00 0.00 49 1006.6
20260505024009 46 205 1.0 2.0 0.00 0.00 0.00 49 1006.5
20260505023506 46 201 0.0 1.0 0.00 0.00 0.00 48 1006.5
20260505023004 46 202 0.0 0.0 0.00 0.00 0.00 47 1006.4
20260505022501 47 200 0.0 1.0 0.00 0.00 0.00 46 1006.4
20260505021958 47 243 2.0 2.0 0.00 0.00 0.00 47 1006.3
20260505021455 47 204 0.0 1.0 0.00 0.00 0.00 46 1006.2
20260505020950 47 235 2.0 3.0 0.00 0.00 0.00 45 1006.3
20260505020446 47 238 2.0 3.0 0.00 0.00 0.00 45 1006.1
20260505015943 47 224 1.0 3.0 0.00 0.00 0.00 45 1006.1
20260505015440 48 225 2.0 3.0 0.00 0.00 0.00 44 1006.0
20260505014937 48 215 2.0 3.0 0.00 0.00 0.00 44 1005.8
20260505014434 48 286 3.0 6.0 0.00 0.00 0.00 44 1005.8
20260505013931 48 322 4.0 5.0 0.00 0.00 0.00 44 1005.7
20260505013428 48 322 4.0 7.0 0.00 0.00 0.00 44 1005.8
20260505012926 48 278 3.0 8.0 0.00 0.00 0.00 44 1005.8
20260505012424 49 256 5.0 6.0 0.00 0.00 0.00 43 1005.6
20260505011920 49 326 4.0 8.0 0.00 0.00 0.00 42 1005.4
20260505011416 49 336 7.0 18.0 0.00 0.00 0.00 42 1005.4
20260505010913 49 313 3.0 8.0 0.00 0.00 0.00 43 1005.4
20260505010409 50 347 7.0 8.0 0.00 0.00 0.00 44 1005.1
20260505005905 50 356 7.0 14.0 0.00 0.00 0.00 43 1005.1
20260505005402 50 336 8.0 13.0 0.00 0.00 0.00 43 1005.0
20260505004859 50 325 5.0 7.0 0.00 0.00 0.00 43 1004.8
20260505004355 50 321 6.0 10.0 0.00 0.00 0.00 42 1004.8
20260505003853 51 348 8.0 14.0 0.00 0.00 0.00 42 1004.5
20260505003350 51 298 8.0 13.0 0.00 0.00 0.00 41 1004.7
20260505002846 52 335 6.0 17.0 0.00 0.00 0.00 40 1004.5
20260505002343 52 311 7.0 9.0 0.00 0.00 0.00 40 1004.5
20260505001841 52 350 7.0 9.0 0.00 0.00 0.00 40 1004.3
20260505001338 52 315 9.0 13.0 0.00 0.00 0.00 40 1004.1
20260505000835 52 195 1.0 11.0 0.00 0.00 0.00 40 1004.3
20260505000333 52 273 7.0 15.0 0.00 0.00 0.00 39 1003.9
20260504235830 53 310 4.0 5.0 0.00 0.00 0.00 41 1004.0
20260504235327 53 309 6.0 8.0 0.00 0.00 0.00 40 1003.9
20260504234823 53 298 5.0 10.0 0.00 0.00 0.00 41 1004.0
20260504234321 53 311 7.0 9.0 0.00 0.00 0.00 40 1003.8
20260504233817 53 326 3.0 6.0 0.00 0.00 0.00 40 1004.1
20260504233313 53 19 7.0 10.0 0.00 0.00 0.00 39 1003.9
20260504232810 53 239 5.0 10.0 0.00 0.00 0.00 39 1003.8
20260504232307 54 294 5.0 8.0 0.00 0.00 0.00 39 1003.7
20260504231804 53 327 6.0 10.0 0.00 0.00 0.00 39 1003.9
20260504231300 54 300 5.0 8.0 0.00 0.00 0.00 41 1003.6
20260504230756 54 284 5.0 13.0 0.00 0.00 0.00 40 1003.7
20260504230254 54 332 5.0 8.0 0.00 0.00 0.00 42 1003.4
20260504225753 54 218 2.0 6.0 0.00 0.00 0.00 42 1003.5
20260504225249 54 356 5.0 10.0 0.00 0.00 0.00 41 1003.4
20260504224746 54 341 7.0 8.0 0.00 0.00 0.00 42 1003.5
20260504224243 54 338 6.0 13.0 0.00 0.00 0.00 42 1003.2
20260504223740 55 320 4.0 13.0 0.00 0.00 0.00 42 1003.2
20260504223235 56 336 9.0 13.0 0.00 0.00 0.00 41 1003.1
20260504222733 57 313 7.0 10.0 0.00 0.00 0.00 39 1002.8
20260504222229 57 335 6.0 11.0 0.00 0.00 0.00 40 1002.7
20260504221727 57 3 11.0 16.0 0.00 0.00 0.00 39 1002.6
20260504221224 56 353 5.0 6.0 0.00 0.00 0.00 41 1002.5
20260504220720 57 293 8.0 16.0 0.00 0.00 0.00 40 1002.4
20260504220218 57 332 6.0 10.0 0.00 0.00 0.00 39 1002.4
20260504215714 57 267 4.0 6.0 0.00 0.00 0.00 41 1002.4
20260504215212 57 350 15.0 17.0 0.00 0.00 0.00 40 1002.3
20260504214707 57 319 7.0 16.0 0.00 0.00 0.00 41 1002.4
20260504214204 57 339 7.0 8.0 0.00 0.00 0.00 41 1002.1
20260504213701 57 339 7.0 11.0 0.00 0.00 0.00 40 1001.9
20260504213157 57 332 3.0 15.0 0.00 0.00 0.00 39 1001.8
20260504212654 58 282 5.0 9.0 0.00 0.00 0.00 38 1001.9
20260504212150 58 6 9.0 13.0 0.00 0.00 0.00 38 1001.9
20260504211648 59 314 11.0 15.0 0.00 0.00 0.00 38 1001.9
20260504211144 58 5 6.0 15.0 0.00 0.00 0.00 39 1001.7
20260504210642 59 323 5.0 9.0 0.00 0.00 0.00 38 1001.7
20260504210138 60 5 9.0 10.0 0.00 0.00 0.00 38 1001.6
20260504205636 60 321 8.0 13.0 0.00 0.00 0.00 38 1001.7
20260504205133 58 327 6.0 10.0 0.00 0.00 0.00 38 1001.4
20260504204632 59 322 7.0 10.0 0.00 0.00 0.00 38 1001.6
20260504204130 59 283 5.0 14.0 0.00 0.00 0.00 38 1001.6
20260504203628 59 354 7.0 15.0 0.00 0.00 0.00 38 1001.1
20260504203125 60 6 6.0 14.0 0.00 0.00 0.00 38 1001.6
20260504202620 61 289 7.0 16.0 0.00 0.00 0.00 37 1001.4
20260504202117 60 294 9.0 11.0 0.00 0.00 0.00 37 1001.1
20260504201614 61 337 9.0 11.0 0.00 0.00 0.00 38 1001.0
20260504201112 60 347 3.0 14.0 0.00 0.00 0.00 40 1001.2
20260504200609 60 354 5.0 10.0 0.00 0.00 0.00 39 1001.2
20260504200105 60 281 6.0 11.0 0.00 0.00 0.00 40 1001.2
20260504195601 60 253 7.0 14.0 0.00 0.00 0.00 39 1001.1
20260504195057 60 310 11.0 14.0 0.00 0.00 0.00 38 1000.9
20260504194554 59 300 6.0 17.0 0.00 0.00 0.00 40 1001.0
20260504194050 60 220 9.0 13.0 0.00 0.00 0.00 38 1001.1
20260504193546 60 357 10.0 16.0 0.00 0.00 0.00 38 1001.0
20260504193045 60 285 8.0 14.0 0.00 0.00 0.00 40 1001.0
20260504192543 61 302 7.0 15.0 0.00 0.00 0.00 39 1000.6
20260504192041 60 355 9.0 13.0 0.00 0.00 0.00 38 1000.6
20260504191538 60 250 3.0 8.0 0.00 0.00 0.00 41 1000.7
20260504191034 60 309 6.0 14.0 0.00 0.00 0.00 40 1000.6
20260504190531 61 270 6.0 9.0 0.00 0.00 0.00 38 1000.7
20260504190027 60 281 3.0 7.0 0.00 0.00 0.00 40 1000.6
20260504185524 60 265 10.0 14.0 0.00 0.00 0.00 38 1000.4
20260504185021 60 296 5.0 13.0 0.00 0.00 0.00 38 1000.3
20260504184516 61 317 10.0 13.0 0.00 0.00 0.00 37 1000.1
20260504184012 61 226 6.0 11.0 0.00 0.00 0.00 37 1000.1
20260504183509 61 287 8.0 14.0 0.00 0.00 0.00 36 999.9
20260504183008 61 256 9.0 13.0 0.00 0.00 0.00 37 1000.1
20260504182504 61 300 5.0 7.0 0.00 0.00 0.00 37 1000.2
20260504182001 60 275 5.0 9.0 0.00 0.00 0.00 38 999.9
20260504181458 60 336 5.0 11.0 0.00 0.00 0.00 36 1000.2
20260504180956 60 325 5.0 8.0 0.00 0.00 0.00 39 999.8
20260504180455 61 339 6.0 8.0 0.00 0.00 0.00 37 999.7
20260504175953 60 318 5.0 11.0 0.00 0.00 0.00 38 999.7
20260504175450 60 314 6.0 17.0 0.00 0.00 0.00 40 999.6
20260504174947 62 316 9.0 17.0 0.00 0.00 0.00 38 999.5
20260504174445 61 308 8.0 16.0 0.00 0.00 0.00 38 999.5
20260504173942 61 317 6.0 14.0 0.00 0.00 0.00 39 999.5
20260504173438 62 247 6.0 9.0 0.00 0.00 0.00 40 999.4
20260504172936 62 288 7.0 11.0 0.00 0.00 0.00 40 999.5
20260504172432 62 31 4.0 9.0 0.00 0.00 0.00 40 999.3
20260504171928 62 323 5.0 10.0 0.00 0.00 0.00 40 999.5
20260504171426 62 312 5.0 8.0 0.00 0.00 0.00 40 999.2
20260504170923 62 336 6.0 7.0 0.00 0.00 0.00 40 999.2
20260504170419 61 287 7.0 10.0 0.00 0.00 0.00 39 999.2
20260504160338 61 312 9.0 13.0 0.00 0.00 0.00 41 999.2
20260504150802 61 305 5.0 7.0 0.00 0.00 0.00 41 998.9
20260504150259 61 317 5.0 9.0 0.00 0.00 0.00 42 998.9
20260504141229 61 297 9.0 14.0 0.00 0.00 0.00 41 998.7
20260504140726 60 337 5.0 8.0 0.00 0.00 0.00 44 998.6
20260504140221 60 349 5.0 10.0 0.00 0.00 0.00 43 998.5
20260504130650 60 257 4.0 7.0 0.00 0.00 0.00 48 997.2
20260504130146 60 268 6.0 8.0 0.00 0.00 0.00 48 997.5
20260504120110 59 243 6.0 10.0 0.00 0.00 0.00 46 997.0
20260504110537 59 294 9.0 16.0 0.00 0.00 0.00 43 996.3